Flag for Switzerland Weather past 2 weeks in Lugano, Switzerland

52 °F


Feels Like: 52 °F
Forecast: 56 / 65 °F
Wind: 1 mph from North

Location: Lugano Airport

Current Time: Oct 5, 2015 at 2:06:14 AM

Latest Report: Oct 5, 2015 at 1:20 AM

Visibility: 10 mi

Pressure: 30.07 "Hg

Humidity: 100%

Dew point: 52 °F

Location of LuganoLocation

Historic Weather in Lugano — Graph


Lugano temperature yesterday

Maximum temperature yesterday: 66 °F (at 3:50 PM)
Minimum temperature yesterday: 54 °F (at 5:50 AM)
Average temperature yesterday: 57 °F

Past Weeks' High & Low Weather Summary

High77 °F (Sep 20, 3:50 PM)100% (Sep 23, 6:50 AM)30.39 "Hg (Sep 23, 6:50 AM)
Low46 °F (Sep 24, 1:50 AM)31% (Sep 20, 12:20 PM)29.59 "Hg (Sep 23, 6:20 AM)
Average59 °F75%30.10 "Hg
* Reported Sep 20 12:20 AM — Oct 5 12:50 AM, Lugano, Weather by CustomWeather, © 2015

Note: Actual official high and low records may vary slightly from our data, if they occured in-between our weather recording intervals... More about our weather records


Lugano weather history for previous 24 hours

Time TempWeatherWind HumidityBarometerVisibility
12:50 AM
Mon, Oct 5
52 °FClear.2 mph100%30.07 "Hg3 mi
12:20 AM52 °FClear.3 mph94%30.07 "Hg10 mi
11:20 PM
Sun, Oct 4
54 °FClear.1 mph94%30.09 "Hg10 mi
10:50 PM54 °FClear.No wind94%30.07 "Hg10 mi
10:20 PM54 °FClear.1 mph94%30.09 "HgN/A
9:50 PM54 °FPassing clouds.1 mph94%30.07 "HgN/A
9:20 PM54 °FPassing clouds.1 mph94%30.07 "HgN/A
8:50 PM54 °FPassing clouds.5 mph94%30.07 "HgN/A
8:20 PM54 °FPassing clouds.5 mph94%30.07 "HgN/A
7:50 PM55 °FPassing clouds.3 mph94%30.07 "HgN/A
7:20 PM57 °FPassing clouds.3 mph88%30.07 "HgN/A
6:50 PM59 °FPassing clouds.2 mph82%30.07 "HgN/A
6:20 PM61 °FPassing clouds.2 mph77%30.07 "HgN/A
5:50 PM64 °FPassing clouds.2 mph68%30.04 "HgN/A
5:20 PM66 °FPassing clouds.6 mph68%30.07 "HgN/A
4:50 PM66 °FPassing clouds.6 mph68%30.07 "HgN/A
4:20 PM66 °FPassing clouds.7 mph64%30.07 "HgN/A
3:50 PM66 °FPassing clouds.5 mph64%30.07 "HgN/A
3:20 PM64 °FPassing clouds.7 mph68%30.07 "HgN/A
2:50 PM64 °FPassing clouds.8 mph68%30.09 "HgN/A
2:20 PM64 °FPassing clouds.8 mph68%30.09 "HgN/A
1:50 PM64 °FPassing clouds.6 mph68%30.12 "HgN/A
1:20 PM64 °FScattered clouds.1 mph68%30.12 "HgN/A
12:50 PM59 °FPartly sunny.3 mph82%30.12 "HgN/A
12:20 PM59 °FPartly sunny.5 mph82%30.12 "HgN/A
11:50 AM59 °FPartly sunny.6 mph82%30.12 "HgN/A
11:20 AM57 °FPartly sunny.6 mph88%30.12 "HgN/A
10:50 AM55 °FPartly sunny.5 mph94%30.12 "HgN/A
10:20 AM55 °FPartly sunny.3 mph94%30.12 "HgN/A
9:50 AM54 °FPartly sunny.2 mph100%30.12 "HgN/A
9:20 AM54 °FPartly sunny.3 mph100%30.12 "HgN/A
8:50 AM54 °FSprinkles. Partly sunny.2 mph100%30.09 "HgN/A
8:20 AM54 °FSprinkles. Low clouds.2 mph100%30.09 "Hg6 mi
7:50 AM54 °FSprinkles. Mostly cloudy.2 mph100%30.09 "Hg6 mi
7:20 AM54 °FRain. Fog.3 mph100%30.09 "Hg3 mi
6:20 AM54 °FRain. Fog.2 mph100%30.07 "Hg3 mi
5:50 AM54 °FRain. Passing clouds.3 mph100%30.07 "Hg3 mi
5:20 AM55 °FRain. Fog.3 mph94%30.07 "Hg2 mi
4:50 AM55 °FRain. Fog.1 mph94%30.07 "Hg2 mi
4:20 AM55 °FLight rain. Passing clouds.7 mph94%30.07 "HgN/A
3:50 AM55 °FHeavy rain. Passing clouds.7 mph94%30.09 "Hg3 mi
3:20 AM55 °FRain. Passing clouds.5 mph94%30.09 "Hg3 mi
2:50 AM55 °FRain. Partly cloudy.3 mph94%30.12 "Hg4 mi
2:20 AM55 °FRain. Partly cloudy.7 mph94%30.12 "Hg4 mi
Weather by CustomWeather, © 2015

See weather overviewHow to use our weather pages